Date String (YYYY-MM-DD hh:mm:ss) UTC,Instrument flags,Ambient pressure (hPa),Sample flow (lpm),Bypass flow (lpm),Sample temperature (°C),Ambient temperature (°C),ASC tube jacket temperature (°C),LED temperature (°C),Box temperature (°C),Sample RH (%),Span deviation,Mass concentration (μg/m³),Mass concentration (μg/m³),Mass concentration (μg/m³)
DateTimeUTC,F1_M11,P_M11,Q1_M11,Q2_M11,T1_M11,T2_M11,T3_M11,T4_M11,T5_M11,U1_M11,ZSPAN_M11,X0_M11,X2_M11,X1_M11
2021-11-06 07:00:00,,0828.9,4.98,0.00,29.4,28.2,00.0,38.5,31.0,08.4,0000.0,0008.29,0002.81,0001.83
2021-11-06 07:01:00,,0828.9,4.99,0.00,29.4,28.2,00.0,38.5,31.0,08.3,0000.0,0008.25,0002.72,0001.81
2021-11-06 07:02:00,,0828.9,5.01,0.00,29.4,28.2,00.0,38.5,31.0,08.4,0000.0,0008.13,0002.70,0001.81
2021-11-06 07:03:00,,0828.9,5.00,0.00,29.4,28.2,00.0,38.5,31.0,08.4,0000.0,0007.78,0002.62,0001.78
2021-11-06 07:04:00,,0828.9,5.00,0.00,29.4,28.2,00.0,38.5,31.0,08.4,0000.0,0007.67,0002.54,0001.76
2021-11-06 07:05:00,,0828.8,5.00,0.00,29.3,28.1,00.0,38.5,31.0,08.4,0000.0,0007.58,0002.45,0001.71
2021-11-06 07:06:00,,0828.8,5.01,0.00,29.3,28.1,00.0,38.4,31.0,08.4,0000.0,0007.59,0002.41,0001.67
2021-11-06 07:07:00,,0828.8,5.00,0.00,29.3,28.1,00.0,38.4,31.0,08.3,0000.0,0007.21,0002.41,0001.66
2021-11-06 07:08:00,,0829.2,5.00,0.00,29.3,28.1,00.0,38.4,30.9,08.4,0000.0,0007.57,0002.34,0001.64
2021-11-06 07:09:00,,0828.8,5.00,0.00,29.3,28.1,00.0,38.4,30.9,08.3,0000.0,0007.38,0002.35,0001.64
2021-11-06 07:10:00,,0828.9,5.00,0.00,29.3,28.1,00.0,38.4,30.9,08.5,0000.0,0007.52,0002.37,0001.63
2021-11-06 07:11:00,,0828.9,5.00,0.00,29.3,28.1,00.0,38.4,30.9,08.5,0000.0,0007.20,0002.36,0001.61
2021-11-06 07:12:00,,0829.1,5.00,0.00,29.3,28.1,00.0,38.4,30.9,08.7,0000.0,0006.65,0002.31,0001.59
2021-11-06 07:13:00,,0829.0,4.99,0.00,29.3,28.1,00.0,38.4,30.9,08.7,0000.0,0006.44,0002.26,0001.55
2021-11-06 07:14:00,,0828.9,5.01,0.00,29.3,28.1,00.0,38.4,30.9,08.6,0000.0,0006.20,0002.24,0001.53
2021-11-06 07:15:00,,0829.1,5.00,0.00,29.3,28.1,00.0,38.4,30.9,08.7,0000.0,0006.15,0002.19,0001.52
2021-11-06 07:16:00,,0829.3,5.00,0.00,29.2,28.1,00.0,38.4,30.9,08.5,0000.0,0006.37,0002.11,0001.51
2021-11-06 07:17:00,,0829.4,4.99,0.00,29.2,28.1,00.0,38.4,30.9,08.2,0000.0,0006.16,0002.08,0001.52
2021-11-06 07:18:00,,0829.0,5.00,0.00,29.2,28.1,00.0,38.4,30.9,08.3,0000.0,0005.93,0002.02,0001.51
2021-11-06 07:19:00,,0828.8,4.99,0.00,29.2,28.1,00.0,38.4,30.8,08.4,0000.0,0004.96,0002.04,0001.49
2021-11-06 07:20:00,,0828.9,5.00,0.00,29.2,28.1,00.0,38.3,30.8,08.6,0000.0,0004.81,0002.02,0001.47
2021-11-06 07:21:00,,0828.9,5.00,0.00,29.2,28.0,00.0,38.3,30.8,08.6,0000.0,0004.82,0002.01,0001.46
2021-11-06 07:22:00,,0828.8,5.01,0.00,29.2,28.0,00.0,38.3,30.8,08.7,0000.0,0006.09,0002.00,0001.44
2021-11-06 07:23:00,,0828.9,4.99,0.00,29.2,28.0,00.0,38.3,30.8,08.5,0000.0,0006.61,0002.03,0001.42
2021-11-06 07:24:00,,0828.9,5.01,0.00,29.2,28.0,00.0,38.3,30.8,08.5,0000.0,0006.41,0002.04,0001.42
2021-11-06 07:25:00,,0828.8,5.01,0.00,29.2,28.0,00.0,38.3,30.8,08.5,0000.0,0005.75,0001.98,0001.41
2021-11-06 07:26:00,,0828.8,4.99,0.00,29.2,28.0,00.0,38.3,30.8,08.6,0000.0,0005.75,0001.96,0001.40
2021-11-06 07:27:00,,0828.9,4.99,0.00,29.2,28.0,00.0,38.3,30.8,08.5,0000.0,0005.70,0001.99,0001.40
2021-11-06 07:28:00,,0828.9,5.00,0.00,29.1,28.0,00.0,38.3,30.8,08.5,0000.0,0005.68,0001.98,0001.39
2021-11-06 07:29:00,,0828.9,5.01,0.00,29.1,28.0,00.0,38.3,30.7,08.5,0000.0,0005.88,0001.99,0001.40
2021-11-06 07:30:00,,0828.9,5.01,0.00,29.1,27.9,00.0,38.3,30.8,08.5,0000.0,0005.86,0001.96,0001.41
2021-11-06 07:31:00,,0828.9,4.99,0.00,29.1,27.9,00.0,38.3,30.8,08.5,0000.0,0006.10,0001.97,0001.43
2021-11-06 07:32:00,,0828.9,4.99,0.00,29.1,27.9,00.0,38.3,30.7,08.7,0000.0,0006.77,0001.98,0001.44
2021-11-06 07:33:00,,0828.9,5.00,0.00,29.1,27.9,00.0,38.3,30.7,08.8,0000.0,0005.86,0002.00,0001.46
2021-11-06 07:34:00,,0828.9,5.00,0.00,29.1,27.9,00.0,38.3,30.7,08.7,0000.0,0005.34,0002.05,0001.47
2021-11-06 07:35:00,,0828.9,5.00,0.00,29.1,27.9,00.0,38.2,30.7,08.8,0000.0,0005.89,0002.03,0001.49
2021-11-06 07:36:00,,0828.9,5.01,0.00,29.1,27.9,00.0,38.2,30.7,08.7,0000.0,0006.21,0002.06,0001.51
2021-11-06 07:37:00,,0828.9,5.00,0.00,29.1,27.8,00.0,38.2,30.7,08.7,0000.0,0006.42,0002.13,0001.53
2021-11-06 07:38:00,,0828.9,5.00,0.00,29.1,27.8,00.0,38.2,30.7,08.6,0000.0,0005.89,0002.10,0001.54
2021-11-06 07:39:00,,0828.9,5.00,0.00,29.1,27.8,00.0,38.2,30.7,08.8,0000.0,0006.11,0002.17,0001.57
2021-11-06 07:40:00,,0828.9,4.99,0.00,29.1,27.8,00.0,38.2,30.7,08.9,0000.0,0006.10,0002.18,0001.58
2021-11-06 07:41:00,,0828.9,5.00,0.00,29.1,27.8,00.0,38.2,30.7,08.9,0000.0,0006.05,0002.22,0001.58
2021-11-06 07:42:00,,0828.9,5.01,0.00,29.1,27.8,00.0,38.2,30.7,08.7,0000.0,0005.78,0002.19,0001.58
2021-11-06 07:43:00,,0828.9,4.99,0.00,29.0,27.8,00.0,38.2,30.7,08.5,0000.0,0005.05,0002.17,0001.56
2021-11-06 07:44:00,,0828.8,5.00,0.00,29.0,27.8,00.0,38.2,30.6,08.4,0000.0,0004.91,0002.13,0001.54
2021-11-06 07:45:00,,0828.9,5.01,0.00,29.0,27.8,00.0,38.2,30.6,08.3,0000.0,0004.56,0002.04,0001.52
2021-11-06 07:46:00,,0828.8,5.01,0.00,29.0,27.8,00.0,38.1,30.6,08.2,0000.0,0003.77,0002.01,0001.50
2021-11-06 07:47:00,,0828.9,5.00,0.00,29.0,27.8,00.0,38.1,30.6,08.1,0000.0,0003.54,0001.97,0001.48
2021-11-06 07:48:00,,0828.9,5.00,0.00,29.0,27.7,00.0,38.1,30.6,08.1,0000.0,0003.52,0001.93,0001.44
2021-11-06 07:49:00,,0828.9,5.00,0.00,29.0,27.7,00.0,38.1,30.6,08.0,0000.0,0003.78,0001.93,0001.42
2021-11-06 07:50:00,,0828.9,4.99,0.00,28.9,27.7,00.0,38.1,30.6,08.1,0000.0,0003.49,0001.84,0001.37
2021-11-06 07:51:00,,0828.9,5.00,0.00,28.9,27.7,00.0,38.1,30.5,08.1,0000.0,0003.30,0001.79,0001.34
2021-11-06 07:52:00,,0828.9,5.00,0.00,28.9,27.7,00.0,38.1,30.5,08.1,0000.0,0003.30,0001.75,0001.31
2021-11-06 07:53:00,,0828.9,5.00,0.00,28.9,27.7,00.0,38.1,30.5,08.1,0000.0,0004.41,0001.73,0001.28
2021-11-06 07:54:00,,0828.9,5.00,0.00,28.9,27.7,00.0,38.1,30.5,07.9,0000.0,0004.59,0001.69,0001.26
2021-11-06 07:55:00,,0828.9,5.00,0.00,28.9,27.7,00.0,38.1,30.5,08.0,0000.0,0005.58,0001.69,0001.25
2021-11-06 07:56:00,,0828.9,5.00,0.00,28.9,27.7,00.0,38.0,30.5,08.0,0000.0,0005.65,0001.71,0001.24
2021-11-06 07:57:00,,0828.8,5.01,0.00,28.9,27.7,00.0,38.0,30.5,08.0,0000.0,0005.67,0001.71,0001.24
2021-11-06 07:58:00,,0828.9,4.99,0.00,28.9,27.7,00.0,38.0,30.5,07.9,0000.0,0005.62,0001.68,0001.22
2021-11-06 07:59:00,,0828.9,5.02,0.00,28.9,27.7,00.0,38.0,30.5,08.0,0000.0,0005.41,0001.64,0001.21
